SHIJIAN 6 01B (SJ-6 01B)

导读 | 星芒AI

SHIJIAN 6 01B(SJ-6 01B)是中国研制的一颗试验卫星,主要用于空间环境探测和新技术验证。该卫星属于实践六号系列,于2007年4月15日与SJ-6 01A一同由长征二号丁运载火箭从酒泉卫星发射中心发射升空。SJ-6 01B运行在低地球轨道,设计寿命为3年,任务包括对宇宙射线、高能粒子等空间环境参数进行测量,为后续卫星工程和航天器防护提供数据支持。

基本信息
目录编号:
28414
目录名称:
SHIJIAN 6 01B (SJ-6 01B)
国际标识:
2004-035B
轨道中心:
EARTH
卫星名称:
SHIJIAN 6 01B (SJ-6 01B)
卫星全名:
--
卫星状态:
在轨 (已飞行7769 天)
发射日期:
2004-09-08 UTC
国别 :
中国 (CN)
星等 :
--
轨道信息
数据来源 国际轨道数据
星历时间: 2025-12-15T15:12:15+0800
17小时前
查看轨道信息
半长轴: 6929.543km
偏心率: 0.0006731
轨道倾角: 97.619°
近地点辐角 58.124°
升交点赤经 4.574°
平近点角 302.064°
近地点: 546.743km
远地点: 556.073km
周期: 95.679分钟
每日圈数: 15.050328
详细信息
使用方式:
暂无
2D轨道图
3D轨道图
轨道高度分析图
轨道倾角分析图
轨道综合分析图
查看轨道综合分析图